(139401) = 2001 NT20

Discovered at Palomar on 2001-07-14 by NEAT.

Orbit

Orbit type: Main Belt

Note: WebGL enabled browser required.

epoch2024-03-31.0
epoch JD2460400.5
perihelion date2022-02-08.14960
perihelion JD2459618.64960
argument of perihelion (°)282.83005
ascending node (°)315.26196
inclination (°)13.65159
eccentricity0.0599270
perihelion distance (AU)2.4985111
Tisserand w.r.t. Jupiter3.3
ΔV w.r.t. Earth (km/sec)10.8
semimajor axis (AU)2.6577840
mean anomaly (°)177.84758
mean daily motion (°/day)0.22747010
aphelion distance (AU)2.817
period (years)4.33
P-vector [x]-0.50916820
P-vector [y]-0.66935831
P-vector [z]-0.54102422
Q-vector [x]0.84448230
Q-vector [y]-0.50987733
Q-vector [z]-0.16393518
absolute magnitude15.58
phase slope0.15
uncertainty0
referenceMPEC 2024-D119
observations used790
oppositions15
arc length (days)8258
first opposition used2001
last opposition used2024
residual rms (arc-secs)0.69
perturbers coarse indicatorM-v
perturbers precise indicator003Ek
first observation date used2001-07-14.0
last observation date used2024-02-22.0
computer nameMPCLINUX
JD of orbit computation2456937.254575
perihelion JD uncertainty (days)3.7065E-04
argument of perihelion uncertainty (°)8.4754E-05
ascending node uncertainty (°)2.4515E-05
inclination uncertainty (°)8.2504E-06
eccentricity uncertainty 4.7611E-08
perihelion distance uncertainty (AU)1.2296E-07
Minimum Orbit Intersection Distances (in AU)
for orbit epoch: 2460400.5, reference: E2024-DB9
Mercury2.04341
Venus1.80024
Earth1.5253
Mars0.98706
Jupiter2.32977
Saturn6.3187
Uranus15.8248
Neptune27.1275

Observations

804 total observations over interval: 2001 07 14.43512 – 2024 02 22.261322
These data are available for download (format description).

Date (UT) J2000 RA J2000 Dec Magn Location Ref
2001 07 14.43512 23 23 50.72 +02 07 19.9 20.5   644 – Palomar Mountain/NEAT MPS 32436
2001 07 14.44668 23 23 50.68 +02 07 24.0 20.2   644 – Palomar Mountain/NEAT MPS 32436
2001 07 14.45771 23 23 50.67 +02 07 28.1 20.2   644 – Palomar Mountain/NEAT MPS 32436
2001 07 19.38032 23 23 21.67 +02 36 24.0 19.5 R 699 – Lowell Observatory-LONEOS MPS 32436
2001 07 19.39914 23 23 21.49 +02 36 29.6   699 – Lowell Observatory-LONEOS MPS 32436
2001 07 19.41797 23 23 21.31 +02 36 36.7   699 – Lowell Observatory-LONEOS MPS 32436
2001 07 19.43683 23 23 21.05 +02 36 43.4   699 – Lowell Observatory-LONEOS MPS 32436
2001 08 17.34978 23 08 36.35 +04 18 57.2 19.7   704 – Lincoln Laboratory ETS, New Mexico MPS 34439
2001 08 17.36187 23 08 35.68 +04 18 58.4 19.6   704 – Lincoln Laboratory ETS, New Mexico MPS 34439
2001 08 17.38612 23 08 34.42 +04 19 00.8 19.6   704 – Lincoln Laboratory ETS, New Mexico MPS 34439
2001 08 24.30932 23 02 32.07 +04 24 24.5 19.0 R 699 – Lowell Observatory-LONEOS MPS 34439
2001 08 24.34171 23 02 30.28 +04 24 24.6   699 – Lowell Observatory-LONEOS MPS 34439
2001 08 24.36922 23 02 28.63 +04 24 24.6   699 – Lowell Observatory-LONEOS MPS 34440
2001 08 24.39678 23 02 27.12 +04 24 25.9   699 – Lowell Observatory-LONEOS MPS 34440
2001 08 25.28947 23 01 37.91 +04 24 34.2 19.9   704 – Lincoln Laboratory ETS, New Mexico MPS 34440
2001 08 25.30248 23 01 37.20 +04 24 34.1 19.7   704 – Lincoln Laboratory ETS, New Mexico MPS 34440
2001 08 25.31553 23 01 36.44 +04 24 34.7 19.7   704 – Lincoln Laboratory ETS, New Mexico MPS 34440
2001 08 25.32853 23 01 35.71 +04 24 34.3 19.7   704 – Lincoln Laboratory ETS, New Mexico MPS 34440
2001 09 16.30705 22 40 37.64 +03 57 11.5 20.1   704 – Lincoln Laboratory ETS, New Mexico MPS 35818
2001 09 16.32138 22 40 36.87 +03 57 09.7 19.9   704 – Lincoln Laboratory ETS, New Mexico MPS 35818
2001 09 16.33572 22 40 36.10 +03 57 07.2 20.1   704 – Lincoln Laboratory ETS, New Mexico MPS 35818
2001 09 16.35098 22 40 35.18 +03 57 05.0 19.8   704 – Lincoln Laboratory ETS, New Mexico MPS 35818
2001 09 25.18282 22 33 14.64 +03 35 28.1 19.4   704 – Lincoln Laboratory ETS, New Mexico MPS 49337
2001 09 25.19741 22 33 13.93 +03 35 25.4 19.0   704 – Lincoln Laboratory ETS, New Mexico MPS 49337
2001 09 25.21228 22 33 13.19 +03 35 23.1 19.3   704 – Lincoln Laboratory ETS, New Mexico MPS 49337
2001 09 25.22690 22 33 12.50 +03 35 20.8 19.4   704 – Lincoln Laboratory ETS, New Mexico MPS 49337
2001 09 25.24239 22 33 11.80 +03 35 19.5 19.4   704 – Lincoln Laboratory ETS, New Mexico MPS 49337
2004 01 29.48136 12 25 22.63 -14 17 59.7 19.6 R 699 – Lowell Observatory-LONEOS MPS 102984
2004 01 29.49546 12 25 22.69 -14 18 07.2   699 – Lowell Observatory-LONEOS MPS 102984
2004 01 29.50953 12 25 22.72 -14 18 14.0   699 – Lowell Observatory-LONEOS MPS 102984
2004 01 29.52363 12 25 22.69 -14 18 21.4   699 – Lowell Observatory-LONEOS MPS 102984
2004 03 17.27451 11 58 59.99 -17 52 16.9 18.4 V 703 – Catalina Sky Survey MPS 102984
2004 03 17.28830 11 58 59.16 -17 52 16.1 18.9 V 703 – Catalina Sky Survey MPS 102984
2004 03 17.30203 11 58 58.25 -17 52 16.0 19.0 V 703 – Catalina Sky Survey MPS 102984
2004 03 17.31585 11 58 57.34 -17 52 16.0 19.1 V 703 – Catalina Sky Survey MPS 102984
2004 03 17.31795 11 58 57.23 -17 52 16.2 18.6   704 – Lincoln Laboratory ETS, New Mexico MPS 102984
2004 03 17.32932 11 58 56.55 -17 52 15.1 18.8   704 – Lincoln Laboratory ETS, New Mexico MPS 102984
2004 03 17.34063 11 58 55.82 -17 52 15.7 18.9   704 – Lincoln Laboratory ETS, New Mexico MPS 102984
2004 03 17.35190 11 58 55.16 -17 52 14.1 19.0   704 – Lincoln Laboratory ETS, New Mexico MPS 102984
2004 03 17.36319 11 58 54.45 -17 52 13.4 19.5   704 – Lincoln Laboratory ETS, New Mexico MPS 102984
2004 03 26.23879 11 49 58.12 -17 39 07.7 18.9   704 – Lincoln Laboratory ETS, New Mexico MPS 102984
2004 03 26.26039 11 49 56.79 -17 39 04.5 19.6   704 – Lincoln Laboratory ETS, New Mexico MPS 102984
2004 03 26.27171 11 49 56.01 -17 39 01.9 19.2   704 – Lincoln Laboratory ETS, New Mexico MPS 102984
2004 03 26.28248 11 49 55.41 -17 39 01.1 19.3   704 – Lincoln Laboratory ETS, New Mexico MPS 102984
2004 03 29.24130 11 47 00.40 -17 31 19.4 19.3   704 – Lincoln Laboratory ETS, New Mexico MPS 102984
2004 03 29.25109 11 46 59.80 -17 31 16.5 19.1   704 – Lincoln Laboratory ETS, New Mexico MPS 102984
2004 03 29.26094 11 46 59.22 -17 31 16.4 19.2   704 – Lincoln Laboratory ETS, New Mexico MPS 102984
2004 03 30.22116 11 46 03.47 -17 28 28.6 18.7 C 704 – Lincoln Laboratory ETS, New Mexico MPS 294212
2004 03 30.23134 11 46 02.75 -17 28 25.0 18.5 C 704 – Lincoln Laboratory ETS, New Mexico MPS 294212
2004 03 30.24099 11 46 02.30 -17 28 23.3 18.2 C 704 – Lincoln Laboratory ETS, New Mexico MPS 294212
2004 03 30.25080 11 46 01.58 -17 28 22.9 18.7 C 704 – Lincoln Laboratory ETS, New Mexico MPS 294212
2004 03 30.26056 11 46 01.17 -17 28 20.9 18.6 C 704 – Lincoln Laboratory ETS, New Mexico MPS 294212
2004 04 12.15994 11 34 50.90 -16 39 39.5 19.1   644 – Palomar Mountain/NEAT MPS 104208
2004 04 12.18131 11 34 49.89 -16 39 34.0 19.0   644 – Palomar Mountain/NEAT MPS 104208
2004 04 12.20319 11 34 48.88 -16 39 28.4 18.9   644 – Palomar Mountain/NEAT MPS 104208
2004 04 17.21255 11 31 23.28 -16 17 15.8 19.1   704 – Lincoln Laboratory ETS, New Mexico MPS 104974
2004 04 17.22323 11 31 22.88 -16 17 12.8 18.9   704 – Lincoln Laboratory ETS, New Mexico MPS 104974
2004 04 17.23391 11 31 22.47 -16 17 09.5 19.0   704 – Lincoln Laboratory ETS, New Mexico MPS 104974
2004 04 24.18088 11 27 42.42 -15 46 01.8 18.4 R 703 – Catalina Sky Survey MPS 106129
2004 04 24.19253 11 27 42.12 -15 46 00.0 18.5 R 703 – Catalina Sky Survey MPS 106129
2004 04 24.20402 11 27 41.85 -15 45 56.2 19.1 R 703 – Catalina Sky Survey MPS 106129
2004 04 24.21546 11 27 41.43 -15 45 53.1 18.6 R 703 – Catalina Sky Survey MPS 106129
2005 05 20.45122 21 20 24.19 -22 20 37.3 20.2   644 – Palomar Mountain/NEAT MPS 135311
2005 05 20.46145 21 20 24.50 -22 20 34.7 20.7   644 – Palomar Mountain/NEAT MPS 135311
2005 05 20.47313 21 20 24.93 -22 20 31.8 20.4   644 – Palomar Mountain/NEAT MPS 135311
2005 06 28.44628 21 23 30.99 -20 24 57.0 19.5   644 – Palomar Mountain/NEAT MPS 136896
2005 06 28.45799 21 23 30.64 -20 24 55.7 19.9   644 – Palomar Mountain/NEAT MPS 136896
2005 06 28.47157 21 23 30.23 -20 24 54.4 19.8   644 – Palomar Mountain/NEAT MPS 136896
2005 07 03.36647 21 20 51.92 -20 17 30.9 19.8   644 – Palomar Mountain/NEAT MPS 137388
2005 07 03.38124 21 20 51.35 -20 17 29.7 19.6   644 – Palomar Mountain/NEAT MPS 137388
2005 07 03.39228 21 20 50.91 -20 17 28.8 19.6   644 – Palomar Mountain/NEAT MPS 137388
2005 07 31.53368 20 55 39.36 -19 44 08.6 18.4 V E12 – Siding Spring Survey MPS 138828
2005 07 31.54110 20 55 38.92 -19 44 07.5 18.5 V E12 – Siding Spring Survey MPS 138828
2005 07 31.54892 20 55 38.42 -19 44 07.4 18.5 V E12 – Siding Spring Survey MPS 138828
2005 07 31.55652 20 55 37.88 -19 44 06.5 19.3 V E12 – Siding Spring Survey MPS 138828
2005 08 06.21493 20 49 36.99 -19 35 47.4 18.8   704 – Lincoln Laboratory ETS, New Mexico MPS 139237
2005 08 06.22673 20 49 36.23 -19 35 45.6 19.4   704 – Lincoln Laboratory ETS, New Mexico MPS 139237
2005 08 06.23865 20 49 35.51 -19 35 44.5 19.4   704 – Lincoln Laboratory ETS, New Mexico MPS 139237
2005 08 06.25046 20 49 34.68 -19 35 43.7 19.1   704 – Lincoln Laboratory ETS, New Mexico MPS 139237
2005 08 27.58656 20 30 03.24 -18 48 53.0 19.7 V E12 – Siding Spring Survey MPS 140061
2005 08 27.59507 20 30 02.80 -18 48 51.4 18.9 V E12 – Siding Spring Survey MPS 140061
2005 08 27.60361 20 30 02.44 -18 48 49.8 19.8 V E12 – Siding Spring Survey MPS 140061
2005 08 27.61233 20 30 02.12 -18 48 47.7 19.5 V E12 – Siding Spring Survey MPS 140061
2005 10 01.09787 20 22 07.32 -16 47 38.6 20.5 V G96 – Mt. Lemmon Survey MPS 143480
2005 10 01.10491 20 22 07.39 -16 47 37.2 20.4 V G96 – Mt. Lemmon Survey MPS 143480
2005 10 01.11198 20 22 07.50 -16 47 35.3 20.0 V G96 – Mt. Lemmon Survey MPS 143480
2005 10 01.11910 20 22 07.57 -16 47 33.3 20.3 V G96 – Mt. Lemmon Survey MPS 143480
2006 10 23.36973 03 11 05.71 +38 50 30.9 19.7 V 703 – Catalina Sky Survey MPS 183900
2006 10 23.37841 03 11 05.35 +38 50 31.7 19.7 V 703 – Catalina Sky Survey MPS 183900
